Retour au catalogue

FENGYUN 1C DEB *

ActifPO
NORAD 47003·DEBRIS·🇨🇳 China

Lancé May 10, 1999 depuis Taiyuan Satellite Launch Center

Loading…

Prochains Passages (prochaines 24 heures)

TLE

VieillissantSource: Space-Track

Époque: Sep 10, 2026, 11:20 UTC

1 47003U 99025FAD 26253.47285595  .00000306  00000-0  42813-3 0  9992
2 47003  98.8517 157.7703 0334024  94.4416 269.4951 13.42963027689532

Suivez FENGYUN 1C DEB * en temps réel avec AllMySat

Download on the App Store